Stations météo

Publicité
Beziers-Vias, France (7638): Température de l'air & dewpoint: 28.05.2020 02:00:00 - 03.06.2020 02:00:00 (CEST)Beziers-Vias, France (7638): Vitesse du vent & gusts: 28.05.2020 02:00:00 - 03.06.2020 02:00:00 (CEST)Beziers-Vias, France (7638): Direction du vent: 28.05.2020 02:00:00 - 03.06.2020 02:00:00 (CEST)Beziers-Vias, France (7638): reduced air pressure: 28.05.2020 02:00:00 - 03.06.2020 02:00:00 (CEST)Beziers-Vias, France (7638): visibility: 28.05.2020 02:00:00 - 03.06.2020 02:00:00 (CEST)Beziers-Vias, France (7638): Quantités de précipitations: 28.05.2020 02:00:00 - 03.06.2020 02:00:00 (CEST)
Date & Time tt [°C] td [°C] ff [km/h] ff [knt] fx [km/h] fx [knt] dd ppp [hPa] vv [km] rr [mm]
03.06.2020 02:00:00 15,8 15,0 4 2 6 3 N 1012,4 16 0,0
03.06.2020 01:00:00 16,3 15,0 2 1 5 3 N 1012,9 18 0,0
03.06.2020 00:00:00 17,0 15,3 4 2 5 3 NE 1013,4 28 0,0
02.06.2020 23:00:00 18,2 15,3 3 1 6 3 W 1013,6 36 0,0
02.06.2020 22:00:00 19,8 17,4 4 2 15 8 SSW 1013,4 30 0,0
02.06.2020 21:00:00 20,9 17,9 10 5 23 12 SSW 1013,4 20 0,0
02.06.2020 20:00:00 21,4 17,6 14 8 25 13 S 1013,5 48 0,0
02.06.2020 19:00:00 21,9 17,1 14 8 24 13 S 1013,6 58 0,0
02.06.2020 18:00:00 23,2 16,7 15 8 24 13 S 1014,2 24 0,0
02.06.2020 17:00:00 23,8 16,6 11 6 26 14 S 1014,7 24 0,0
02.06.2020 16:00:00 24,0 16,8 14 8 28 15 SSE 1015,1 24 0,0
02.06.2020 15:00:00 23,7 16,0 15 8 26 14 SSE 1015,6 26 0,0
02.06.2020 14:00:00 23,4 15,7 14 8 28 15 SSE 1016,2 29 0,0
02.06.2020 13:00:00 23,3 15,1 15 8 29 15 SSE 1016,4 37 0,0
02.06.2020 12:00:00 22,3 15,9 15 8 26 14 SE 1016,9 48 0,0
02.06.2020 11:00:00 22,9 16,9 14 8 26 14 SSE 1016,8 60 0,0
02.06.2020 10:00:00 22,2 16,7 6 3 18 10 E 1016,9 51 0,0
02.06.2020 09:00:00 21,4 17,4 11 6 20 11 NE 1016,8 35 0,0
02.06.2020 08:00:00 19,2 17,5 8 5 14 8 NE 1016,6 43 0,0
02.06.2020 07:00:00 18,4 17,2 7 4 13 7 NNE 1016,3 35 0,0
02.06.2020 06:00:00 18,5 17,2 10 5 16 9 NNE 1016,0 45 0,0
02.06.2020 05:00:00 18,1 16,9 8 4 15 8 NE 1016,1 39 0,0
02.06.2020 04:00:00 18,4 17,1 9 5 14 8 NNE 1016,3 41 0,0
02.06.2020 03:00:00 19,0 17,8 6 4 12 7 NE 1016,6 44 0,0
02.06.2020 02:00:00 19,3 17,8 7 4 12 7 ESE 1016,8 53 0,0
02.06.2020 01:00:00 19,3 17,6 7 4 12 6 E 1017,1 52 0,0
02.06.2020 00:00:00 19,8 17,8 9 5 11 6 ENE 1017,2 55 0,0
01.06.2020 23:00:00 20,2 17,8 8 5 18 10 E 1017,5 57 0,0
01.06.2020 22:00:00 20,6 17,8 9 5 18 10 SE 1016,8 60 0,0
01.06.2020 21:00:00 20,5 17,9 9 5 25 13 SE 1016,6 60 0,0
01.06.2020 20:00:00 20,9 17,7 13 7 22 12 SE 1016,4 58 0,0
01.06.2020 19:00:00 21,3 17,5 14 8 26 14 ESE 1016,6 44 0,0
01.06.2020 18:00:00 21,5 17,3 11 6 24 13 SE 1017,1 45 0,0
01.06.2020 17:00:00 22,0 16,7 12 7 27 15 SSE 1017,2 60 0,0
01.06.2020 16:00:00 22,1 16,8 16 9 33 18 SE 1017,4 28 0,0
01.06.2020 15:00:00 23,3 16,3 19 10 37 20 SE 1017,2 19 0,0
01.06.2020 14:00:00 23,0 16,5 21 11 35 19 SE 1017,4 21 0,0
01.06.2020 13:00:00 23,0 16,3 20 11 36 19 ESE 1017,2 25 0,0
01.06.2020 12:00:00 22,9 16,7 18 10 34 18 ESE 1017,2 31 0,0
01.06.2020 11:00:00 22,3 17,0 19 10 32 17 ESE 1016,8 20 0,0
01.06.2020 10:00:00 21,6 16,3 18 10 29 16 SE 1016,6 33 0,0
01.06.2020 09:00:00 19,9 16,9 16 9 23 12 ENE 1016,6 35 0,0
01.06.2020 08:00:00 18,2 16,5 11 6 19 10 NE 1016,4 20 0,0
01.06.2020 07:00:00 17,4 16,1 12 7 19 10 NE 1015,7 28 0,0
01.06.2020 06:00:00 17,4 16,1 11 6 19 11 NE 1015,0 28 0,0
01.06.2020 05:00:00 17,3 15,8 13 7 19 11 NE 1014,7 32 0,0
01.06.2020 04:00:00 17,3 15,8 12 6 16 9 NNE 1014,8 32 0,0
01.06.2020 03:00:00 17,8 16,1 10 6 16 9 NE 1014,8 42 0,0
01.06.2020 02:00:00 18,2 16,4 10 5 13 7 NE 1015,2 44 0,0
01.06.2020 01:00:00 18,5 16,7 8 5 11 6 ENE 1015,5 47 0,0
01.06.2020 00:00:00 18,1 16,4 6 3 13 7 ENE 1015,6 43 0,0
31.05.2020 23:00:00 17,9 16,1 10 6 12 7 ENE 1015,8 45 0,0
31.05.2020 22:00:00 19,2 16,2 6 3 16 9 ESE 1015,5 54 0,0
31.05.2020 21:00:00 20,2 16,6 7 4 23 13 SE 1015,2 60 0,0
31.05.2020 20:00:00 20,6 16,6 11 6 25 14 SE 1014,8 59 0,0
31.05.2020 19:00:00 21,2 16,8 15 8 27 15 SE 1014,3 60 0,0
31.05.2020 18:00:00 21,3 16,0 16 9 31 17 SE 1014,7 37 0,0
31.05.2020 17:00:00 22,1 16,1 16 9 35 19 SE 1014,9 30 0,0
31.05.2020 16:00:00 22,4 16,0 17 9 33 18 SE 1015,3 26 0,0
31.05.2020 15:00:00 22,7 16,0 19 10 36 20 SE 1015,5 20 0,0
31.05.2020 14:00:00 22,4 15,0 19 10 34 19 SE 1015,6 20 0,0
31.05.2020 13:00:00 21,5 16,0 16 9 31 17 SE 1015,9 44 0,0
31.05.2020 12:00:00 21,9 15,7 17 9 29 16 ESE 1015,7 46 0,0
31.05.2020 11:00:00 20,8 16,0 15 8 28 15 SE 1015,5 58 0,0
31.05.2020 10:00:00 21,4 15,7 17 9 29 16 ESE 1015,4 20 0,0
31.05.2020 09:00:00 20,4 16,2 14 7 22 12 ESE 1015,1 45 0,0
31.05.2020 08:00:00 19,7 16,7 8 4 16 9 SE 1015,0 58 0,0
31.05.2020 07:00:00 17,9 15,7 9 5 14 7 NE 1014,9 58 0,0
31.05.2020 06:00:00 17,3 14,9 9 5 14 8 NNE 1014,6 58 0,0
31.05.2020 05:00:00 17,1 14,6 11 6 16 8 NNE 1014,5 57 0,0
31.05.2020 04:00:00 17,4 15,0 10 6 16 9 NNE 1014,8 56 0,0
31.05.2020 03:00:00 17,1 14,7 12 6 18 10 NNE 1015,2 57 0,0
31.05.2020 02:00:00 16,1 14,5 9 5 13 7 N 1015,4 49 0,0
31.05.2020 01:00:00 15,9 14,1 4 2 13 7 NNE 1015,7 50 0,0
31.05.2020 00:00:00 16,4 13,9 8 4 11 6 ENE 1015,6 57 0,0
30.05.2020 23:00:00 17,2 14,1 5 3 8 4 ENE 1015,7 60 0,0
30.05.2020 22:00:00 19,0 14,0 4 2 12 7 SSE 1015,2 60 0,0
30.05.2020 21:00:00 19,9 13,6 7 4 19 10 S 1015,0 60 0,0
30.05.2020 20:00:00 20,8 13,5 13 7 27 14 S 1015,2 24 0,0
30.05.2020 19:00:00 21,2 13,9 15 8 33 18 S 1015,2 16 0,0
30.05.2020 18:00:00 22,1 13,4 20 11 36 20 S 1015,4 13 0,0
30.05.2020 17:00:00 21,8 13,7 21 12 35 19 SSE 1015,8 15 0,0
30.05.2020 16:00:00 22,3 12,8 18 10 37 20 S 1016,3 18 0,0
30.05.2020 15:00:00 21,9 13,3 18 10 37 20 SSE 1016,6 20 0,0
30.05.2020 14:00:00 22,2 15,5 16 9 33 18 SSE 1016,9 24 0,0
30.05.2020 13:00:00 21,5 14,2 18 10 32 17 SE 1017,3 27 0,0
30.05.2020 12:00:00 21,6 14,0 18 10 31 17 SE 1017,3 19 0,0
30.05.2020 11:00:00 21,4 14,5 16 9 29 15 ESE 1017,5 37 0,0
30.05.2020 10:00:00 20,5 14,2 16 9 27 15 E 1017,7 45 0,0
30.05.2020 09:00:00 19,0 13,2 16 8 23 12 ENE 1017,7 44 0,0
30.05.2020 08:00:00 17,7 12,4 11 6 17 9 ENE 1017,7 56 0,0
30.05.2020 07:00:00 17,0 12,5 8 4 19 10 NE 1017,7 56 0,0
30.05.2020 06:00:00 16,9 13,2 13 7 20 11 NE 1017,5 58 0,0
30.05.2020 05:00:00 16,9 14,0 10 5 13 7 NNE 1017,7 55 0,0
30.05.2020 04:00:00 17,5 14,4 9 5 14 8 NNE 1018,1 56 0,0
30.05.2020 03:00:00 18,6 15,7 9 5 18 10 E 1018,4 46 0,0
30.05.2020 02:00:00 18,7 15,6 10 6 15 8 E 1018,6 47 0,0
30.05.2020 01:00:00 18,5 15,2 10 5 16 9 ENE 1018,6 43 0,0
30.05.2020 00:00:00 18,4 15,3 10 5 14 8 ENE 1018,8 42 0,0
29.05.2020 23:00:00 19,4 15,5 11 6 20 11 ENE 1018,8 47 0,0
29.05.2020 22:00:00 19,0 15,5 13 7 29 16 E 1018,4 49 0,0
29.05.2020 21:00:00 20,1 16,3 16 9 27 15 ESE 1018,0 46 0,0
29.05.2020 20:00:00 20,7 16,5 16 9 34 19 ESE 1017,7 48 0,0
29.05.2020 19:00:00 21,0 16,2 22 12 36 19 ESE 1017,0 34 0,0
29.05.2020 18:00:00 22,0 16,7 19 11 38 21 SE 1016,7 28 0,0
29.05.2020 17:00:00 22,6 13,9 19 11 34 18 SE 1016,4 33 0,0
29.05.2020 16:00:00 23,5 13,1 15 8 27 15 SSE 1016,3 32 0,0
29.05.2020 15:00:00 22,9 12,8 14 7 24 13 SSE 1016,4 34 0,0
29.05.2020 14:00:00 23,4 12,1 16 9 27 15 S 1016,6 30 0,0
29.05.2020 13:00:00 24,3 10,6 18 10 28 15 SSE 1016,6 31 0,0
29.05.2020 12:00:00 25,0 9,7 16 9 25 13 S 1017,0 37 0,0
29.05.2020 11:00:00 24,6 9,7 10 6 19 10 S 1017,0 42 0,0
29.05.2020 10:00:00 23,4 12,4 5 3 10 5 S 1017,1 49 0,0
29.05.2020 09:00:00 20,6 14,0 4 2 17 9 N 1017,4 41 0,0
29.05.2020 08:00:00 17,4 14,3 12 7 17 9 N 1017,5 25 0,0
29.05.2020 07:00:00 14,4 13,1 7 4 12 6 NNW 1017,7 20 0,0
29.05.2020 06:00:00 13,3 12,2 8 4 10 5 NW 1017,8 41 0,2
29.05.2020 05:00:00 13,8 12,5 5 3 13 7 NNW 1017,9 50 0,0
29.05.2020 04:00:00 14,5 13,4 10 6 13 7 N 1018,3 50 0,0
29.05.2020 03:00:00 14,7 13,7 6 3 10 6 N 1018,9 19 0,0
29.05.2020 02:00:00 15,3 14,2 4 2 7 4 N 1019,3 40 0,0
29.05.2020 01:00:00 16,3 14,7 4 2 13 7 N 1019,7 41 0,0
29.05.2020 00:00:00 16,4 14,8 6 4 11 6 NE 1020,0 43 0,0
28.05.2020 23:00:00 17,3 15,3 8 4 9 5 NE 1020,2 52 0,0
28.05.2020 22:00:00 19,4 16,1 3 2 9 5 SSE 1020,0 49 0,0
28.05.2020 21:00:00 20,5 16,1 5 3 26 14 SSW 1020,2 60 0,0
28.05.2020 20:00:00 21,4 15,9 15 8 29 16 SSW 1020,4 15 0,0
28.05.2020 19:00:00 22,1 15,4 16 9 28 15 SSW 1020,8 14 0,0
28.05.2020 18:00:00 22,9 15,2 19 10 33 18 S 1021,5 15 0,0
28.05.2020 17:00:00 23,2 15,5 19 10 29 16 S 1022,0 18 0,0
28.05.2020 16:00:00 23,2 15,5 19 10 31 17 S 1022,9 20 0,0
28.05.2020 15:00:00 23,2 11,9 16 9 30 16 S 1023,6 25 0,0
28.05.2020 14:00:00 23,1 14,4 16 9 28 15 S 1024,2 20 0,0
28.05.2020 13:00:00 23,3 13,5 14 7 22 12 S 1024,7 41 0,0
28.05.2020 12:00:00 22,9 16,0 11 6 21 11 S 1025,2 26 0,0
28.05.2020 11:00:00 22,8 15,9 6 4 16 9 S 1025,6 20 0,0
28.05.2020 10:00:00 21,5 15,1 4 2 13 7 S 1026,2 19 0,0
28.05.2020 09:00:00 19,1 14,6 5 3 16 8 NNE 1026,6 20 0,0
28.05.2020 08:00:00 15,7 13,9 9 5 15 8 NNE 1026,7 19 0,0
28.05.2020 07:00:00 13,5 12,7 6 4 14 7 N 1026,9 20 0,0
28.05.2020 06:00:00 12,7 11,9 3 1 8 5 N 1027,1 20 0,0
28.05.2020 05:00:00 13,3 12,5 2 1 6 4 N 1026,9 20 0,0
28.05.2020 04:00:00 13,4 12,6 5 3 8 4 N 1027,2 19 0,0
28.05.2020 03:00:00 13,8 12,9 3 2 8 5 N 1027,5 19 0,0
28.05.2020 02:00:00 14,4 13,4 4 2 6 4 N 1027,8 17 0,0

tt = Température de l'air
td = dewpoint
ff = Vitesse du vent
fx = gusts
dd = Direction du vent
ppp = reduced air pressure
vv = visibility
rr = Quantités de précipitations

stations d'obs. à proximité